Location: Bletchingley
(51.2333°N, 0.1000°W)
Time: 14:37:53
(UTC+00:00)

Cosmos 2266 Rocket - Pass Details

Date: 23 January 2021
Orbit: 934 x 1008 km, 82.9° (Epoch: 05 March)

Event Time Altitude Azimuth Distance (km) Brightness Sun altitude
Rises 20:36:35 0° 201° (SSW) 3,688 7.1 -37.2°
Enters shadow 20:37:17 - 202° (SSW) 3,431 6.9 -37.3°
Exits shadow 20:53:05 - 7° (N) 3,311 6.9 -39.7°
Sets 20:53:58 0° 8° (N) 3,640 7.1 -39.8°
